sat.trackr.live / text

‹ back to catalog

STARLINK-32866

NORAD 62858 · 2025-022E

PAYLOAD ACTIVE UNKNOWN

§ Identity

Operator
Country
US
Launch date
2025-02-01
Launch site
AFWTR
Launch vehicle
Mass (kg)
RCS (m²)

Purposes: comms

External: N2YO · Heavens-Above · Gunter

§ Orbital elements

Epoch: 2026-09-20T13:45:52.380288Z

Period
93.85 min
Inclination
53.1587°
Eccentricity
0.0000979
Mean motion
15.34395604 rev/d
Perigee alt
462.0 km
Apogee alt
463.4 km
Semi-major
6,840.9 km
B*
4.2464e-4
RAAN
299.7206°
Arg perigee
77.8863°
Mean anomaly
282.2250°
Rev number
9,180

§ Raw data

STARLINK-328661 62858U 25022E   26263.57352292  .00013996  00000+0  42464-3 0  99942 62858  53.1587 299.7206 0000979  77.8863 282.2250 15.34395604 91808

JSON: /api/v1/satellites/62858 · /tle

For live sub-satellite position, see the globe view (requires WebGL).

§ Visibility from observer

Set your observer location to see the next 7 days of passes ≥ 10°. The values pass through the URL so the page stays shareable.

No JS? Fill the form by hand. The geolocation button needs JavaScript.